EW6013 Weather Reports


Display with metric or nautical units.
time (UTC)temp
F
wind
direction
speed
MPH
gust
MPH
rain 1hr
in
rain 24hr
in
rain mn
in
humidity
%
barometer
mb
20190916201016 68 18 2.0 6.0 0.00 0.00 0.00 55 1013.0
20190916200516 69 357 1.0 6.0 0.00 0.00 0.00 54 1013.0
20190916200016 69 30 1.0 4.0 0.00 0.00 0.00 54 1013.0
20190916195516 69 30 2.0 9.0 0.00 0.00 0.00 54 1013.1
20190916195016 68 355 2.0 9.0 0.00 0.00 0.00 54 1013.1
20190916194516 68 117 0.0 5.0 0.00 0.00 0.00 54 1013.1
20190916194016 68 137 1.0 6.0 0.00 0.00 0.00 54 1013.1
20190916193516 68 272 2.0 7.0 0.00 0.00 0.00 55 1013.2
20190916193016 68 333 1.0 9.0 0.00 0.00 0.00 54 1013.1
20190916192516 68 356 1.0 9.0 0.00 0.00 0.00 55 1013.1
20190916192016 68 341 1.0 8.0 0.00 0.00 0.00 57 1013.1
20190916191516 68 278 1.0 8.0 0.00 0.00 0.00 54 1013.1
20190916191016 68 281 1.0 7.0 0.00 0.00 0.00 55 1013.2
20190916190516 69 268 0.0 8.0 0.00 0.00 0.00 55 1013.2
20190916190016 69 297 2.0 8.0 0.00 0.00 0.00 53 1013.2
20190916185516 69 353 2.0 7.0 0.00 0.00 0.00 55 1013.2
20190916185016 69 286 2.0 7.0 0.00 0.00 0.00 54 1013.2
20190916184516 69 65 2.0 9.0 0.00 0.00 0.00 53 1013.2
20190916184016 69 315 2.0 9.0 0.00 0.00 0.00 54 1013.2
20190916183516 70 278 2.0 8.0 0.00 0.00 0.00 55 1013.2
20190916183016 70 307 0.0 3.0 0.00 0.00 0.00 53 1013.3
20190916182516 69 336 1.0 8.0 0.00 0.00 0.00 54 1013.3
20190916182016 70 300 2.0 8.0 0.00 0.00 0.00 54 1013.3
20190916181516 70 262 1.0 7.0 0.00 0.00 0.00 52 1013.3
20190916181016 70 304 0.0 9.0 0.00 0.00 0.00 53 1013.4
20190916180516 70 287 1.0 9.0 0.00 0.00 0.00 52 1013.5
20190916180016 69 199 1.0 9.0 0.00 0.00 0.00 53 1013.5
20190916175516 69 47 2.0 9.0 0.00 0.00 0.00 52 1013.6
20190916175016 69 251 2.0 8.0 0.00 0.00 0.00 52 1013.5
20190916174516 69 258 3.0 9.0 0.00 0.00 0.00 52 1013.6
20190916174017 70 252 3.0 9.0 0.00 0.00 0.00 53 1013.7
20190916173516 70 19 2.0 8.0 0.00 0.00 0.00 55 1013.6
20190916173016 70 43 1.0 6.0 0.00 0.00 0.00 56 1013.6
20190916172516 70 276 1.0 6.0 0.00 0.00 0.00 55 1013.7
20190916172016 69 221 1.0 6.0 0.00 0.00 0.00 55 1013.7
20190916171516 69 305 2.0 8.0 0.00 0.00 0.00 54 1013.8
20190916171016 69 259 1.0 8.0 0.00 0.00 0.00 56 1013.8
20190916170517 69 56 2.0 7.0 0.00 0.00 0.00 55 1013.9
20190916170016 68 271 1.0 4.0 0.00 0.00 0.00 56 1013.9
20190916165516 68 118 1.0 8.0 0.00 0.00 0.00 56 1014.1
20190916165016 68 292 2.0 8.0 0.00 0.00 0.00 55 1014.2
20190916164516 68 126 2.0 9.0 0.00 0.00 0.00 54 1014.2
20190916164016 67 252 3.0 9.0 0.00 0.00 0.00 57 1014.2
20190916163516 67 69 3.0 9.0 0.00 0.00 0.00 54 1014.3
20190916163016 67 253 3.0 10.0 0.00 0.00 0.00 54 1014.3
20190916162515 67 289 4.0 12.0 0.00 0.00 0.00 56 1014.3
20190916162016 67 290 4.0 12.0 0.00 0.00 0.00 56 1014.3
20190916161517 67 276 3.0 9.0 0.00 0.00 0.00 55 1014.3
20190916161016 66 56 3.0 9.0 0.00 0.00 0.00 56 1014.3
20190916160516 66 50 3.0 10.0 0.00 0.00 0.00 58 1014.3
20190916160016 66 255 3.0 10.0 0.00 0.00 0.00 57 1014.5
20190916155515 66 290 3.0 7.0 0.00 0.00 0.00 59 1014.6
20190916155016 65 288 2.0 12.0 0.00 0.00 0.00 60 1014.7
20190916154516 65 88 2.0 12.0 0.00 0.00 0.00 59 1014.7
20190916154017 65 54 3.0 8.0 0.00 0.00 0.00 58 1014.8
20190916153516 65 146 2.0 7.0 0.00 0.00 0.00 59 1014.8
20190916153016 64 23 3.0 7.0 0.00 0.00 0.00 59 1014.9
20190916152516 64 247 2.0 11.0 0.00 0.00 0.00 60 1014.9
20190916152015 64 252 4.0 11.0 0.00 0.00 0.00 61 1015.0
20190916151516 64 262 3.0 9.0 0.00 0.00 0.00 62 1015.1
20190916151015 63 310 2.0 9.0 0.00 0.00 0.00 61 1015.2
20190916150515 63 26 1.0 6.0 0.00 0.00 0.00 63 1015.2
20190916150016 63 353 2.0 6.0 0.00 0.00 0.00 62 1015.2
20190916145515 63 50 1.0 8.0 0.00 0.00 0.00 63 1015.2
20190916145016 63 68 3.0 8.0 0.00 0.00 0.00 63 1015.3
20190916144515 62 263 3.0 11.0 0.00 0.00 0.00 62 1015.4
20190916144015 62 293 3.0 11.0 0.00 0.00 0.00 63 1015.5
20190916143515 62 79 1.0 6.0 0.00 0.00 0.00 63 1015.6
20190916143015 62 292 2.0 6.0 0.00 0.00 0.00 66 1015.7
20190916142515 61 313 2.0 7.0 0.00 0.00 0.00 66 1015.6
20190916142015 61 254 1.0 8.0 0.00 0.00 0.00 66 1015.6
20190916141515 61 264 2.0 8.0 0.00 0.00 0.00 68 1015.7
20190916141015 61 312 1.0 8.0 0.00 0.00 0.00 69 1015.7
20190916140515 60 278 1.0 8.0 0.00 0.00 0.00 69 1015.8
20190916140015 60 74 2.0 9.0 0.00 0.00 0.00 69 1015.9
20190916135515 60 264 3.0 9.0 0.00 0.00 0.00 72 1016.0
20190916135015 59 289 1.0 8.0 0.00 0.00 0.00 73 1016.0
20190916134515 59 289 2.0 9.0 0.00 0.00 0.00 74 1016.0
20190916134016 58 283 2.0 9.0 0.00 0.00 0.00 75 1016.1
20190916133515 58 281 2.0 7.0 0.00 0.00 0.00 76 1016.0
20190916133015 58 60 2.0 9.0 0.00 0.00 0.00 76 1016.1
20190916132515 57 313 2.0 9.0 0.00 0.00 0.00 78 1016.1
20190916132015 57 164 1.0 8.0 0.00 0.00 0.00 81 1016.0
20190916131515 56 294 2.0 8.0 0.00 0.00 0.00 83 1015.9
20190916131015 55 55 2.0 8.0 0.00 0.00 0.00 86 1016.0
20190916130515 55 2 0.0 4.0 0.00 0.00 0.00 90 1016.0
20190916130016 55 300 0.0 4.0 0.00 0.00 0.00 91 1016.0
20190916125515 55 266 0.0 4.0 0.00 0.00 0.00 93 1016.1
20190916125016 55 281 1.0 4.0 0.00 0.00 0.00 95 1016.0
20190916124515 55 270 0.0 2.0 0.00 0.00 0.00 96 1016.0
20190916124015 54 286 0.0 3.0 0.00 0.00 0.00 97 1015.9
20190916123515 54 301 0.0 3.0 0.00 0.00 0.00 97 1016.0
20190916123015 54 313 0.0 2.0 0.00 0.00 0.00 97 1015.9
20190916122515 54 293 0.0 2.0 0.00 0.00 0.00 97 1015.9
20190916122015 54 0.0 0.0 0.00 0.00 0.00 97 1015.9
20190916121515 54 0.0 0.0 0.00 0.00 0.00 97 1016.0
20190916121015 54 0.0 0.0 0.00 0.00 0.00 97 1015.9
20190916120515 53 0.0 0.0 0.00 0.00 0.00 97 1015.9
20190916120015 53 0.0 0.0 0.00 0.00 0.00 97 1015.9
20190916115515 53 0.0 0.0 0.00 0.00 0.00 97 1015.8
20190916115015 53 0.0 0.0 0.00 0.00 0.00 97 1015.9
20190916114515 53 0.0 0.0 0.00 0.00 0.00 97 1015.9
20190916114015 53 0.0 0.0 0.00 0.00 0.00 97 1015.9
20190916113515 53 0.0 0.0 0.00 0.00 0.00 97 1015.9
20190916113015 53 0.0 0.0 0.00 0.00 0.00 97 1015.9
20190916112515 53 0.0 0.0 0.00 0.00 0.00 97 1015.8
20190916112015 53 0.0 0.0 0.00 0.00 0.00 96 1015.8
20190916111515 53 0.0 0.0 0.00 0.00 0.00 96 1015.7
20190916111015 53 0.0 0.0 0.00 0.00 0.00 96 1015.7
20190916110515 53 0.0 0.0 0.00 0.00 0.00 96 1015.7
20190916110015 53 0.0 0.0 0.00 0.00 0.00 96 1015.6
20190916105515 53 0.0 0.0 0.00 0.00 0.00 96 1015.5
20190916105015 54 0.0 0.0 0.00 0.01 0.00 96 1015.5
20190916104515 54 0.0 0.0 0.00 0.01 0.00 96 1015.6
20190916104015 54 0.0 0.0 0.00 0.01 0.00 96 1015.6
20190916103515 54 0.0 0.0 0.00 0.01 0.00 96 1015.7
20190916103015 54 0.0 0.0 0.00 0.01 0.00 96 1015.6
20190916102515 54 0.0 0.0 0.00 0.01 0.00 96 1015.5
20190916102015 54 0.0 0.0 0.00 0.01 0.00 96 1015.4
20190916101515 54 0.0 0.0 0.00 0.01 0.00 96 1015.3
20190916101015 54 0.0 0.0 0.00 0.01 0.00 96 1015.2
20190916100515 54 0.0 0.0 0.00 0.01 0.00 96 1015.2
20190916100015 54 0.0 1.0 0.00 0.01 0.00 96 1015.2
20190916095516 54 279 0.0 1.0 0.00 0.01 0.00 96 1015.0
20190916095015 55 0.0 0.0 0.00 0.01 0.00 96 1014.8
20190916094515 55 0.0 0.0 0.00 0.01 0.00 96 1014.8
20190916094015 55 0.0 0.0 0.00 0.01 0.00 96 1014.8
20190916093515 55 0.0 0.0 0.00 0.01 0.00 96 1014.9
20190916093015 55 0.0 0.0 0.00 0.01 0.00 96 1014.9
20190916092515 55 0.0 0.0 0.00 0.01 0.00 96 1014.9
20190916092015 55 0.0 0.0 0.00 0.01 0.00 96 1014.8
20190916091515 55 0.0 0.0 0.00 0.01 0.00 96 1014.7
20190916091015 55 0.0 0.0 0.00 0.01 0.00 96 1014.7
20190916090515 55 0.0 0.0 0.00 0.01 0.00 96 1014.8
20190916090014 55 0.0 0.0 0.00 0.01 0.00 96 1014.7
20190916085515 55 0.0 0.0 0.00 0.01 0.00 96 1014.6
20190916085017 55 0.0 0.0 0.00 0.01 0.00 96 1014.6
20190916084517 55 0.0 0.0 0.00 0.01 0.00 96 1014.7
20190916084017 55 0.0 0.0 0.00 0.01 0.00 96 1014.7
20190916083516 55 0.0 0.0 0.00 0.01 0.00 96 1014.6
20190916083017 55 0.0 0.0 0.00 0.01 0.00 96 1014.5
20190916082517 55 0.0 0.0 0.00 0.01 0.00 96 1014.6
20190916082016 55 0.0 0.0 0.00 0.01 0.00 96 1014.7
20190916081516 55 0.0 0.0 0.00 0.01 0.00 96 1014.7
20190916081016 55 0.0 0.0 0.00 0.01 0.00 96 1014.7
20190916080516 55 0.0 0.0 0.00 0.01 0.00 96 1014.7
20190916080016 55 0.0 0.0 0.00 0.01 0.00 96 1014.6
20190916075516 56 0.0 0.0 0.00 0.01 0.00 96 1014.5
20190916075016 56 0.0 0.0 0.00 0.01 0.00 96 1014.4
20190916074517 56 0.0 0.0 0.00 0.01 0.00 96 1014.4
20190916074017 56 0.0 0.0 0.00 0.01 0.00 96 1014.4
20190916073516 56 0.0 0.0 0.00 0.01 0.00 95 1014.3
20190916073017 56 0.0 0.0 0.00 0.01 0.00 95 1014.3
20190916072516 56 0.0 0.0 0.00 0.01 0.00 95 1014.2
20190916072016 56 0.0 0.0 0.00 0.01 0.00 95 1014.1
20190916071516 56 0.0 0.0 0.00 0.01 0.00 95 1014.0
20190916071017 56 0.0 0.0 0.00 0.01 0.00 96 1013.9
20190916070516 56 0.0 0.0 0.00 0.01 0.00 96 1013.9
20190916070017 56 0.0 0.0 0.00 0.01 0.00 95 1013.8
20190916065516 56 0.0 0.0 0.00 0.01 0.00 95 1013.8
20190916065017 56 0.0 0.0 0.00 0.01 0.00 95 1013.8
20190916064516 56 0.0 0.0 0.00 0.01 0.00 95 1013.9
20190916064016 56 0.0 0.0 0.00 0.01 0.00 95 1013.9
20190916063516 56 0.0 0.0 0.00 0.01 0.00 95 1013.9
20190916063016 56 0.0 0.0 0.00 0.01 0.00 95 1013.9
20190916062516 56 0.0 0.0 0.00 0.01 0.00 95 1014.0
20190916062016 56 0.0 0.0 0.00 0.01 0.00 94 1014.0
20190916061516 56 0.0 0.0 0.00 0.01 0.00 94 1014.1
20190916061016 56 0.0 0.0 0.00 0.01 0.00 94 1014.1
20190916060516 57 0.0 0.0 0.00 0.01 0.00 94 1014.1
20190916060016 57 0.0 0.0 0.00 0.01 0.00 94 1014.1
20190916055516 57 0.0 1.0 0.00 0.01 0.00 94 1014.0
20190916055016 57 279 0.0 1.0 0.00 0.01 0.00 94 1013.8
20190916054516 57 0.0 0.0 0.00 0.01 0.00 94 1013.8
20190916054016 57 0.0 1.0 0.00 0.01 0.00 94 1014.0
20190916053516 57 279 0.0 1.0 0.00 0.01 0.00 93 1014.0
20190916053016 57 0.0 0.0 0.00 0.01 0.00 93 1014.0
20190916052516 57 0.0 0.0 0.00 0.01 0.00 93 1014.1
20190916052016 58 0.0 0.0 0.00 0.01 0.00 93 1014.2
20190916051517 58 0.0 0.0 0.00 0.01 0.00 93 1014.2
20190916051016 58 0.0 0.0 0.00 0.01 0.00 93 1014.3
20190916050516 58 0.0 0.0 0.00 0.01 0.00 92 1014.2
20190916050016 58 0.0 0.0 0.00 0.01 0.00 92 1014.2
20190916045516 58 0.0 0.0 0.00 0.01 0.00 92 1014.2
20190916045016 59 0.0 0.0 0.00 0.01 0.00 91 1014.1
20190916044516 59 0.0 1.0 0.00 0.01 0.00 91 1014.2
20190916044016 59 279 0.0 1.0 0.00 0.01 0.00 92 1014.1
20190916043516 59 0.0 0.0 0.00 0.01 0.00 91 1014.1
20190916043016 59 0.0 0.0 0.00 0.01 0.00 91 1014.2
20190916042516 59 0.0 1.0 0.00 0.01 0.00 91 1014.1
20190916042016 59 279 0.0 1.0 0.00 0.01 0.00 91 1014.2
20190916041516 60 0.0 0.0 0.00 0.01 0.00 91 1014.2
20190916041016 60 0.0 0.0 0.00 0.01 0.00 90 1014.3
20190916040516 60 0.0 0.0 0.00 0.01 0.00 89 1014.2
20190916040016 60 0.0 0.0 0.00 0.01 0.01 90 1014.2
20190916035516 60 0.0 0.0 0.00 0.01 0.01 89 1014.1
20190916035016 60 0.0 1.0 0.00 0.01 0.01 88 1014.1
20190916034516 61 279 0.0 1.0 0.00 0.01 0.01 88 1014.0
20190916034016 61 279 0.0 1.0 0.00 0.01 0.01 88 1014.0
20190916033516 61 0.0 0.0 0.00 0.01 0.01 88 1014.1
20190916033016 61 0.0 0.0 0.00 0.01 0.01 87 1014.0
20190916032516 61 0.0 0.0 0.00 0.01 0.01 87 1014.0
20190916032016 61 0.0 1.0 0.00 0.01 0.01 87 1014.1
20190916031515 61 279 0.0 1.0 0.00 0.01 0.01 87 1014.1
20190916031015 61 0.0 1.0 0.00 0.01 0.01 87 1014.0
20190916030515 61 281 0.0 1.0 0.00 0.01 0.01 87 1014.0
20190916030015 60 281 0.0 2.0 0.00 0.01 0.01 88 1014.0
20190916025516 60 279 0.0 2.0 0.00 0.01 0.01 89 1014.0
20190916025016 60 276 1.0 2.0 0.00 0.02 0.01 89 1014.0
20190916024515 60 0.0 1.0 0.00 0.02 0.01 89 1014.0
20190916024016 60 275 0.0 1.0 0.00 0.02 0.01 89 1013.9
20190916023516 60 0.0 0.0 0.00 0.02 0.01 89 1013.9
20190916023016 60 0.0 1.0 0.00 0.02 0.01 90 1013.9
20190916022515 60 275 0.0 1.0 0.00 0.02 0.01 90 1013.9
20190916022015 60 275 0.0 2.0 0.00 0.02 0.01 91 1013.9
20190916021516 59 275 0.0 3.0 0.00 0.02 0.01 91 1013.9
20190916021015 60 250 0.0 3.0 0.00 0.02 0.01 91 1013.9
20190916020515 60 176 0.0 1.0 0.00 0.02 0.01 91 1013.9
20190916020015 60 0.0 0.0 0.00 0.02 0.01 91 1013.9
20190916015515 60 0.0 0.0 0.00 0.02 0.01 91 1013.9
20190916015015 60 0.0 0.0 0.00 0.02 0.01 90 1013.9
20190916014515 60 0.0 1.0 0.00 0.02 0.01 90 1013.9
20190916014016 60 176 0.0 1.0 0.00 0.02 0.01 89 1014.0
20190916013515 61 175 0.0 1.0 0.00 0.02 0.01 89 1014.0
20190916013015 61 174 0.0 1.0 0.00 0.02 0.01 89 1014.1
20190916012515 61 0.0 0.0 0.00 0.02 0.01 89 1014.1
20190916012016 61 0.0 1.0 0.00 0.02 0.01 88 1014.1
20190916011516 61 173 0.0 1.0 0.00 0.02 0.01 87 1014.1
20190916011015 62 0.0 0.0 0.00 0.02 0.01 86 1014.0
20190916010515 62 0.0 0.0 0.00 0.02 0.01 86 1014.0
20190916010015 62 0.0 0.0 0.00 0.02 0.01 85 1014.0
20190916005515 62 0.0 0.0 0.00 0.02 0.01 85 1014.0
20190916005015 63 0.0 1.0 0.00 0.02 0.01 84 1014.0
20190916004515 63 173 0.0 1.0 0.00 0.02 0.01 83 1014.1
20190916004015 64 0.0 0.0 0.00 0.02 0.01 83 1014.1
20190916003515 64 0.0 0.0 0.00 0.02 0.01 83 1014.1
20190916003015 64 0.0 0.0 0.00 0.02 0.01 83 1014.0
20190916002515 64 0.0 0.0 0.00 0.02 0.01 83 1013.9
20190916002015 65 0.0 0.0 0.00 0.02 0.01 83 1014.0
20190916001515 65 0.0 0.0 0.00 0.02 0.01 82 1014.1
20190916001015 65 0.0 0.0 0.00 0.02 0.01 81 1014.1
20190916000515 65 0.0 0.0 0.00 0.02 0.01 81 1014.1
20190916000016 66 0.0 0.0 0.00 0.02 0.01 80 1014.1
20190915235515 66 0.0 0.0 0.00 0.02 0.01 78 1014.2
20190915235015 66 0.0 0.0 0.00 0.02 0.01 78 1014.1
20190915234515 66 0.0 0.0 0.00 0.02 0.01 77 1013.9
20190915234015 67 0.0 0.0 0.00 0.02 0.01 78 1013.6
20190915233515 67 0.0 0.0 0.00 0.02 0.01 77 1013.4
20190915233016 67 0.0 0.0 0.00 0.02 0.01 76 1013.5
20190915232515 67 0.0 0.0 0.00 0.02 0.01 76 1013.6
20190915232015 68 0.0 0.0 0.00 0.02 0.01 72 1013.8
20190915231515 68 0.0 0.0 0.00 0.02 0.01 70 1013.9
20190915231015 68 0.0 0.0 0.00 0.02 0.01 71 1013.9
20190915230515 69 0.0 0.0 0.00 0.02 0.01 71 1013.9
20190915230015 69 0.0 1.0 0.00 0.02 0.01 71 1013.9
20190915225515 70 173 0.0 1.0 0.00 0.03 0.01 70 1013.9
20190915225015 70 173 0.0 1.0 0.00 0.03 0.01 64 1014.0
20190915224515 70 0.0 1.0 0.00 0.03 0.01 64 1014.2
20190915224015 70 173 0.0 1.0 0.00 0.03 0.01 63 1014.2
20190915223515 71 173 0.0 3.0 0.00 0.03 0.01 63 1014.3
20190915223015 71 180 0.0 3.0 0.00 0.04 0.01 62 1014.5
20190915222515 71 289 0.0 3.0 0.00 0.05 0.01 62 1014.4
20190915222015 71 216 0.0 3.0 0.00 0.07 0.01 61 1014.3
20190915221516 71 252 1.0 4.0 0.00 0.09 0.01 60 1014.2
20190915221015 71 277 1.0 6.0 0.00 0.09 0.01 60 1014.3
20190915220515 72 285 1.0 6.0 0.00 0.10 0.01 60 1014.4
20190915220015 72 296 2.0 6.0 0.00 0.10 0.01 60 1014.4
20190915215515 72 281 1.0 7.0 0.00 0.10 0.01 60 1014.4
20190915215015 73 295 1.0 8.0 0.00 0.10 0.01 59 1014.2
20190915214515 73 291 2.0 10.0 0.00 0.10 0.01 59 1014.1
20190915214015 73 278 1.0 10.0 0.00 0.10 0.01 58 1014.1
20190915213515 73 254 1.0 11.0 0.00 0.10 0.01 58 1014.1
20190915213015 73 299 3.0 11.0 0.00 0.10 0.01 57 1014.0
20190915212515 73 298 1.0 4.0 0.00 0.10 0.01 57 1013.9
20190915212015 73 316 0.0 4.0 0.00 0.10 0.01 57 1013.8
20190915211515 73 301 2.0 6.0 0.00 0.10 0.01 56 1013.8
20190915211015 74 295 2.0 8.0 0.00 0.10 0.01 57 1013.9
20190915210515 74 276 1.0 8.0 0.00 0.10 0.01 59 1013.9
20190915210015 74 282 0.0 7.0 0.00 0.10 0.01 57 1013.8
20190915205515 74 306 2.0 7.0 0.00 0.10 0.01 56 1013.9
20190915205015 74 298 2.0 7.0 0.00 0.10 0.01 55 1013.8
20190915204515 74 228 2.0 4.0 0.00 0.10 0.01 55 1013.8
20190915204015 74 265 2.0 12.0 0.00 0.10 0.01 54 1013.8
20190915203516 74 276 3.0 12.0 0.00 0.10 0.01 55 1013.8
20190915203018 74 280 3.0 6.0 0.00 0.10 0.01 55 1013.8
20190915202515 74 279 2.0 8.0 0.00 0.10 0.01 56 1013.8
20190915202017 74 297 2.0 8.0 0.00 0.10 0.01 55 1013.8
20190915201517 74 303 2.0 8.0 0.00 0.10 0.01 55 1013.8